COSMOS 1275 DEB, 42180

Orbit data source: Space-Track

COSMOS 1275 DEB, 42180 is space debris in LEO originally from a launch on Thu, 04 Jun 1981 UTC launched from the Plesetsk Missile And Space Complex (PKMTR). Debris objects in space refer to the collection of defunct objects orbiting the Earth. Examples of debris include non-operational satellites, rocket bodies, and fragments generated from explosions, collisions, or faulty payload assembly.

Loading next visibility...
Identifier
42180, 1981-053SU
Orbit
LEO
Country
Flag of CISCIS
Related business
Manufacturer
Unknown
Mission
Spacecraft
Bus & Motor
Unknown
Mass
Unknown
Launch date (UTC)
1981-06-04 (45 years ago)
Launch vehicle
Unknown
Launch site
Plesetsk Missile And Space Complex (PKMTR)
Object type
Payload
Rocket body
Debris
Shape & HBR
Unknown shape, 0.1 m
Radar Cross Section
Small (<0.1 m²)

Expand to show TLE details & history
Last TLE update: 16 hours ago

TLE from 16 hours ago
0 COSMOS 1275 DEB
1 42180U 81053SU  26235.81270289  .00076308  00000-0  49966-2 0  9997
2 42180  82.8425 251.5980 0010579 158.1895  16.5289 15.07339065638901
Epoch: 2026-08-23T19:30Z
TLE epoch observation values (Epoch: 2026-08-23T19:30:17.529Z)
Latitude
5.11714°
Longitude
166.2808°
Altitude
539.874 km
Speed
7.597 km/s
True Right ascension
04h 43m 49s
True Declination
5° 05' 09"
Sunlit
Object was in daylight at epoch
Visualization orbit readout
Latitude
Unknown
Longitude
Unknown
Altitude
Unknown
Speed
Unknown
Apparent Right ascension
Unknown
Apparent Declination
Unknown
Sunlit
N/A
Visualization observer readout
Local Sidereal Time
02:29:48
Azimuth
Unknown
Elevation
Unknown
Doppler factor
Unknown
Orbital elements
Apogee altitude
548.627 km
Perigee altitude
533.987 km
Semi-major axis
6,919.444 km
Eccentricity
0.00106
Inclination
82.8425°
RAAN
251.598°
Arg. of periapsis
158.1895°
True anomaly
16.56343°
Mean anomaly
16.5289°
Eccentric anomaly
16.54616°
Mean motion
3.77082 °/min
Orbital period
95.47 mins
BSTAR
0.0049966
Loading maneuver chart data...
Computing Atmospheric mass density...

Documentation

Showing up to 5 results
|